Time,TemperatureF,DewpointF,PressureIn,WindDirection,WindDirectionDegrees,WindSpeedMPH,WindSpeedGustMPH,Humidity,HourlyPrecipIn,Conditions,Clouds,dailyrainin,SolarRadiationWatts/m^2,SoftwareType,DateUTC
2013-06-19 00:01:00,78.0,75.0,-100.00,ESE,102,0.0,-999.0,91,0.00,,,-99.99,0.200000,,2013-06-19 04:01:00,
2013-06-19 00:12:00,77.0,75.0,-100.00,North,9,0.0,-999.0,92,0.00,,,-99.99,0.200000,,2013-06-19 04:12:00,
2013-06-19 00:22:00,77.0,75.0,-100.00,WSW,258,0.0,-999.0,92,0.00,,,-99.99,0.200000,,2013-06-19 04:22:00,
2013-06-19 00:32:00,77.0,75.0,-100.00,WSW,258,0.0,-999.0,92,0.00,,,-99.99,0.200000,,2013-06-19 04:32:00,
2013-06-19 00:42:00,77.0,75.0,-100.00,NE,40,0.0,-999.0,94,0.00,,,-99.99,0.200000,,2013-06-19 04:42:00,
2013-06-19 00:53:00,77.0,75.0,-100.00,NE,40,0.0,-999.0,94,0.00,,,-99.99,0.200000,,2013-06-19 04:53:00,
2013-06-19 01:01:00,76.0,75.0,-100.00,SSE,161,1.0,-999.0,94,0.00,,,-99.99,0.200000,,2013-06-19 05:01:00,
2013-06-19 01:11:00,76.0,75.0,-100.00,SSE,161,1.0,-999.0,94,0.00,,,-99.99,0.200000,,2013-06-19 05:11:00,
2013-06-19 01:23:00,76.0,75.0,-100.00,WSW,258,1.0,-999.0,94,0.00,,,-99.99,0.200000,,2013-06-19 05:23:00,
2013-06-19 01:32:00,76.0,75.0,-100.00,ESE,123,0.0,-999.0,95,0.00,,,-99.99,0.200000,,2013-06-19 05:32:00,
2013-06-19 01:43:00,76.0,75.0,-100.00,SE,136,1.0,-999.0,95,0.00,,,-99.99,0.200000,,2013-06-19 05:43:00,
2013-06-19 01:52:00,76.0,75.0,-100.00,SE,136,1.0,-999.0,95,0.00,,,-99.99,0.200000,,2013-06-19 05:52:00,
2013-06-19 02:02:00,76.0,75.0,-100.00,SE,136,1.0,-999.0,95,0.00,,,-99.99,0.200000,,2013-06-19 06:02:00,
2013-06-19 02:11:00,76.0,74.0,-100.00,ESE,113,1.0,-999.0,95,0.00,,,-99.99,0.200000,,2013-06-19 06:11:00,
2013-06-19 02:22:00,76.0,74.0,-100.00,ESE,116,1.0,-999.0,96,0.00,,,-99.99,0.200000,,2013-06-19 06:22:00,
2013-06-19 02:33:00,76.0,74.0,-100.00,ESE,116,1.0,-999.0,96,0.00,,,-99.99,0.200000,,2013-06-19 06:33:00,
2013-06-19 02:42:00,76.0,75.0,-100.00,SE,131,1.0,-999.0,96,0.00,,,-99.99,0.200000,,2013-06-19 06:42:00,
2013-06-19 02:52:00,76.0,75.0,-100.00,SE,137,1.0,-999.0,96,0.00,,,-99.99,0.200000,,2013-06-19 06:52:00,
2013-06-19 03:01:00,76.0,75.0,-100.00,SE,137,1.0,-999.0,96,0.00,,,-99.99,0.200000,,2013-06-19 07:01:00,
2013-06-19 03:11:00,76.0,74.0,-100.00,SSE,156,2.0,-999.0,96,0.00,,,-99.99,0.200000,,2013-06-19 07:11:00,
2013-06-19 03:22:00,76.0,74.0,-100.00,SSE,149,1.0,-999.0,95,0.00,,,-99.99,0.200000,,2013-06-19 07:22:00,
2013-06-19 03:33:00,76.0,74.0,-100.00,SSE,148,1.0,-999.0,95,0.00,,,-99.99,0.200000,,2013-06-19 07:33:00,
2013-06-19 03:43:00,76.0,74.0,-100.00,SSE,148,1.0,-999.0,95,0.00,,,-99.99,0.200000,,2013-06-19 07:43:00,
2013-06-19 03:53:00,76.0,74.0,-100.00,ESE,104,1.0,-999.0,95,0.00,,,-99.99,0.200000,,2013-06-19 07:53:00,
2013-06-19 04:02:00,76.0,74.0,-100.00,ESE,115,1.0,-999.0,95,0.00,,,-99.99,0.200000,,2013-06-19 08:02:00,
2013-06-19 04:11:00,76.0,74.0,-100.00,ESE,115,1.0,-999.0,95,0.00,,,-99.99,0.200000,,2013-06-19 08:11:00,
2013-06-19 04:22:00,76.0,74.0,-100.00,SE,131,1.0,-999.0,95,0.00,,,-99.99,0.200000,,2013-06-19 08:22:00,
2013-06-19 04:33:00,76.0,74.0,-100.00,SE,131,1.0,-999.0,95,0.00,,,-99.99,0.200000,,2013-06-19 08:33:00,
2013-06-19 04:43:00,77.0,75.0,-100.00,SSW,196,2.0,-999.0,94,0.03,,,-99.99,0.200000,,2013-06-19 08:43:00,
2013-06-19 04:54:00,77.0,75.0,-100.00,SSW,196,2.0,-999.0,94,0.03,,,-99.99,0.200000,,2013-06-19 08:54:00,
2013-06-19 05:02:00,77.0,75.0,-100.00,SSW,196,2.0,-999.0,94,0.03,,,-99.99,0.200000,,2013-06-19 09:02:00,
2013-06-19 05:12:00,77.0,75.0,-100.00,SSW,200,1.0,-999.0,95,0.11,,,-99.99,0.200000,,2013-06-19 09:12:00,
2013-06-19 05:22:00,76.0,75.0,-100.00,South,186,2.0,-999.0,95,0.00,,,-99.99,0.200000,,2013-06-19 09:22:00,
2013-06-19 05:34:00,76.0,75.0,-100.00,South,186,2.0,-999.0,95,0.00,,,-99.99,0.200000,,2013-06-19 09:34:00,
2013-06-19 05:43:00,76.0,75.0,-100.00,NNE,33,0.0,-999.0,95,0.00,,,-99.99,0.200000,,2013-06-19 09:43:00,
2013-06-19 05:53:00,76.0,75.0,-100.00,NNE,28,2.0,-999.0,96,0.00,,,-99.99,0.200000,,2013-06-19 09:53:00,
2013-06-19 06:02:00,76.0,75.0,-100.00,NNE,28,2.0,-999.0,96,0.00,,,-99.99,0.200000,,2013-06-19 10:02:00,
2013-06-19 06:12:00,76.0,75.0,-100.00,North,10,1.0,-999.0,96,0.00,,,-99.99,0.200000,,2013-06-19 10:12:00,
2013-06-19 06:22:00,76.0,75.0,-100.00,ESE,103,1.0,-999.0,97,0.00,,,-99.99,0.200000,,2013-06-19 10:22:00,
2013-06-19 06:33:00,76.0,75.0,-100.00,ESE,103,1.0,-999.0,97,0.00,,,-99.99,0.200000,,2013-06-19 10:33:00,
2013-06-19 06:42:00,75.0,74.0,-100.00,ENE,61,1.0,-999.0,97,0.00,,,-99.99,0.200000,,2013-06-19 10:42:00,
2013-06-19 06:53:00,75.0,74.0,-100.00,NE,46,0.0,-999.0,97,0.00,,,-99.99,0.800000,,2013-06-19 10:53:00,
2013-06-19 07:02:00,75.0,74.0,-100.00,NE,46,0.0,-999.0,97,0.00,,,-99.99,0.800000,,2013-06-19 11:02:00,
2013-06-19 07:11:00,75.0,74.0,-100.00,ESE,120,1.0,-999.0,97,0.00,,,-99.99,5.100000,,2013-06-19 11:11:00,
2013-06-19 07:22:00,75.0,75.0,-100.00,SE,131,1.0,-999.0,97,0.00,,,-99.99,16.600000,,2013-06-19 11:22:00,
2013-06-19 07:33:00,75.0,75.0,-100.00,SE,131,1.0,-999.0,97,0.00,,,-99.99,16.600000,,2013-06-19 11:33:00,
2013-06-19 07:43:00,76.0,75.0,-100.00,SSE,161,1.0,-999.0,97,0.00,,,-99.99,26.000000,,2013-06-19 11:43:00,
2013-06-19 07:54:00,76.0,75.0,-100.00,SSE,160,1.0,-999.0,97,0.00,,,-99.99,24.500000,,2013-06-19 11:54:00,
2013-06-19 08:02:00,76.0,75.0,-100.00,SSE,160,1.0,-999.0,97,0.00,,,-99.99,24.500000,,2013-06-19 12:02:00,
2013-06-19 08:12:00,76.0,75.0,-100.00,SW,216,1.0,-999.0,97,0.00,,,-99.99,54.000000,,2013-06-19 12:12:00,
2013-06-19 08:22:00,76.0,75.0,-100.00,South,173,2.0,-999.0,97,0.00,,,-99.99,60.099998,,2013-06-19 12:22:00,
2013-06-19 08:34:00,76.0,75.0,-100.00,South,173,2.0,-999.0,97,0.00,,,-99.99,60.099998,,2013-06-19 12:34:00,
2013-06-19 08:44:00,78.0,76.0,-100.00,SSW,193,2.0,-999.0,94,0.00,,,-99.99,259.899994,,2013-06-19 12:44:00,
2013-06-19 08:53:00,78.0,76.0,-100.00,SSW,193,2.0,-999.0,94,0.00,,,-99.99,259.899994,,2013-06-19 12:53:00,
2013-06-19 09:02:00,78.0,76.0,-100.00,SSW,193,2.0,-999.0,94,0.00,,,-99.99,259.899994,,2013-06-19 13:02:00,
2013-06-19 09:12:00,80.0,76.0,-100.00,South,179,2.0,-999.0,89,0.00,,,-99.99,228.399994,,2013-06-19 13:12:00,
2013-06-19 09:22:00,80.0,76.0,-100.00,SSE,162,2.0,-999.0,87,0.00,,,-99.99,304.000000,,2013-06-19 13:22:00,
2013-06-19 09:33:00,80.0,76.0,-100.00,SSE,162,2.0,-999.0,87,0.00,,,-99.99,304.000000,,2013-06-19 13:33:00,
2013-06-19 09:42:00,83.0,77.0,-100.00,SE,141,3.0,-999.0,83,0.00,,,-99.99,447.299988,,2013-06-19 13:42:00,
2013-06-19 09:54:00,83.0,77.0,-100.00,SE,141,3.0,-999.0,83,0.00,,,-99.99,447.299988,,2013-06-19 13:54:00,
2013-06-19 10:02:00,83.0,77.0,-100.00,SE,141,3.0,-999.0,83,0.00,,,-99.99,447.299988,,2013-06-19 14:02:00,
2013-06-19 10:12:00,83.0,77.0,-100.00,SSE,155,3.0,-999.0,82,0.00,,,-99.99,493.100006,,2013-06-19 14:12:00,
2013-06-19 10:22:00,83.0,77.0,-100.00,SSE,157,3.0,-999.0,80,0.00,,,-99.99,554.400024,,2013-06-19 14:22:00,
2013-06-19 10:33:00,83.0,77.0,-100.00,SSE,157,3.0,-999.0,80,0.00,,,-99.99,554.400024,,2013-06-19 14:33:00,
2013-06-19 10:44:00,84.0,77.0,-100.00,South,172,3.0,-999.0,78,0.00,,,-99.99,545.500000,,2013-06-19 14:44:00,
2013-06-19 10:53:00,85.0,77.0,-100.00,SSE,159,3.0,-999.0,78,0.00,,,-99.99,464.399994,,2013-06-19 14:53:00,
2013-06-19 11:01:00,85.0,77.0,-100.00,SSE,159,3.0,-999.0,78,0.00,,,-99.99,464.399994,,2013-06-19 15:01:00,
2013-06-19 11:11:00,85.0,77.0,-100.00,South,177,2.0,-999.0,77,0.00,,,-99.99,440.399994,,2013-06-19 15:11:00,
2013-06-19 11:22:00,85.0,77.0,-100.00,SE,145,2.0,-999.0,77,0.00,,,-99.99,335.000000,,2013-06-19 15:22:00,
2013-06-19 11:33:00,85.0,77.0,-100.00,SE,145,2.0,-999.0,77,0.00,,,-99.99,335.000000,,2013-06-19 15:33:00,
2013-06-19 11:42:00,86.0,78.0,-100.00,SE,140,3.0,-999.0,75,0.00,,,-99.99,750.000000,,2013-06-19 15:42:00,
2013-06-19 11:53:00,87.0,78.0,-100.00,SSE,150,3.0,-999.0,73,0.00,,,-99.99,802.000000,,2013-06-19 15:53:00,
2013-06-19 12:01:00,87.0,78.0,-100.00,SSE,150,3.0,-999.0,73,0.00,,,-99.99,802.000000,,2013-06-19 16:01:00,
2013-06-19 12:11:00,87.0,77.0,-100.00,SE,139,3.0,-999.0,72,0.00,,,-99.99,735.000000,,2013-06-19 16:11:00,
2013-06-19 12:22:00,87.0,77.0,-100.00,SE,139,3.0,-999.0,72,0.00,,,-99.99,735.000000,,2013-06-19 16:22:00,
2013-06-19 12:34:00,89.0,77.0,-100.00,SE,136,2.0,-999.0,69,0.00,,,-99.99,806.000000,,2013-06-19 16:34:00,
2013-06-19 12:43:00,89.0,76.0,-100.00,South,185,3.0,-999.0,66,0.00,,,-99.99,457.700012,,2013-06-19 16:43:00,
2013-06-19 12:53:00,89.0,76.0,-100.00,South,185,3.0,-999.0,66,0.00,,,-99.99,457.700012,,2013-06-19 16:53:00,
2013-06-19 13:02:00,89.0,76.0,-100.00,South,185,3.0,-999.0,66,0.00,,,-99.99,457.700012,,2013-06-19 17:02:00,
2013-06-19 13:12:00,89.0,77.0,-100.00,SE,142,2.0,-999.0,66,0.00,,,-99.99,602.900024,,2013-06-19 17:12:00,
2013-06-19 13:22:00,89.0,75.0,-100.00,NNE,13,6.0,-999.0,65,0.00,,,-99.99,424.000000,,2013-06-19 17:22:00,
2013-06-19 13:34:00,89.0,75.0,-100.00,NNE,13,6.0,-999.0,65,0.00,,,-99.99,424.000000,,2013-06-19 17:34:00,
2013-06-19 13:43:00,79.0,73.0,-100.00,NNW,347,7.0,-999.0,80,0.00,,,-99.99,142.500000,,2013-06-19 17:43:00,
2013-06-19 13:53:00,79.0,73.0,-100.00,NNW,347,7.0,-999.0,80,0.00,,,-99.99,142.500000,,2013-06-19 17:53:00,
2013-06-19 14:02:00,79.0,73.0,-100.00,NNW,347,7.0,-999.0,80,0.00,,,-99.99,142.500000,,2013-06-19 18:02:00,
2013-06-19 14:12:00,80.0,73.0,-100.00,NW,319,4.0,-999.0,79,0.00,,,-99.99,266.600006,,2013-06-19 18:12:00,
2013-06-19 14:24:00,81.0,73.0,-100.00,NNW,327,5.0,-999.0,75,0.00,,,-99.99,219.500000,,2013-06-19 18:24:00,
2013-06-19 14:33:00,81.0,73.0,-100.00,NNW,327,5.0,-999.0,75,0.00,,,-99.99,219.500000,,2013-06-19 18:33:00,
2013-06-19 14:44:00,81.0,73.0,-100.00,SE,137,1.0,-999.0,76,0.00,,,-99.99,159.800003,,2013-06-19 18:44:00,
2013-06-19 14:53:00,81.0,73.0,-100.00,SE,132,1.0,-999.0,78,0.00,,,-99.99,114.800003,,2013-06-19 18:53:00,
2013-06-19 15:01:00,81.0,73.0,-100.00,SE,132,1.0,-999.0,78,0.00,,,-99.99,114.800003,,2013-06-19 19:01:00,
2013-06-19 15:12:00,81.0,74.0,-100.00,SSE,162,2.0,-999.0,80,0.00,,,-99.99,135.500000,,2013-06-19 19:12:00,
2013-06-19 15:22:00,81.0,74.0,-100.00,SSE,167,2.0,-999.0,80,0.00,,,-99.99,205.800003,,2013-06-19 19:22:00,
2013-06-19 15:32:00,81.0,74.0,-100.00,SSE,167,2.0,-999.0,80,0.00,,,-99.99,205.800003,,2013-06-19 19:32:00,
2013-06-19 15:43:00,85.0,75.0,-100.00,ENE,57,2.0,-999.0,71,0.00,,,-99.99,743.000000,,2013-06-19 19:43:00,
2013-06-19 15:53:00,85.0,75.0,-100.00,ENE,57,2.0,-999.0,71,0.00,,,-99.99,743.000000,,2013-06-19 19:53:00,
2013-06-19 16:02:00,85.0,75.0,-100.00,ENE,57,2.0,-999.0,71,0.00,,,-99.99,743.000000,,2013-06-19 20:02:00,
2013-06-19 16:11:00,88.0,75.0,-100.00,NW,324,3.0,-999.0,65,0.00,,,-99.99,831.000000,,2013-06-19 20:11:00,
2013-06-19 16:22:00,88.0,75.0,-100.00,North,353,5.0,-999.0,65,0.00,,,-99.99,750.000000,,2013-06-19 20:22:00,
2013-06-19 16:33:00,88.0,75.0,-100.00,North,353,5.0,-999.0,65,0.00,,,-99.99,750.000000,,2013-06-19 20:33:00,
2013-06-19 16:42:00,88.0,76.0,-100.00,North,7,5.0,-999.0,67,0.00,,,-99.99,609.299988,,2013-06-19 20:42:00,
2013-06-19 16:52:00,88.0,76.0,-100.00,North,7,5.0,-999.0,67,0.00,,,-99.99,609.299988,,2013-06-19 20:52:00,
2013-06-19 17:02:00,88.0,76.0,-100.00,North,7,5.0,-999.0,67,0.00,,,-99.99,609.299988,,2013-06-19 21:02:00,
2013-06-19 17:12:00,87.0,75.0,-100.00,NNW,338,5.0,-999.0,69,0.00,,,-99.99,125.599998,,2013-06-19 21:12:00,
2013-06-19 17:22:00,85.0,76.0,-100.00,NW,326,5.0,-999.0,73,0.00,,,-99.99,76.900002,,2013-06-19 21:22:00,
2013-06-19 17:33:00,85.0,76.0,-100.00,NW,326,5.0,-999.0,73,0.00,,,-99.99,76.900002,,2013-06-19 21:33:00,
2013-06-19 17:44:00,84.0,76.0,-100.00,West,279,2.0,-999.0,77,0.00,,,-99.99,94.400002,,2013-06-19 21:44:00,
2013-06-19 17:52:00,84.0,76.0,-100.00,West,279,2.0,-999.0,77,0.00,,,-99.99,94.400002,,2013-06-19 21:52:00,
2013-06-19 18:02:00,84.0,76.0,-100.00,West,279,2.0,-999.0,77,0.00,,,-99.99,94.400002,,2013-06-19 22:02:00,
2013-06-19 18:11:00,84.0,77.0,-100.00,WNW,283,2.0,-999.0,78,0.00,,,-99.99,77.199997,,2013-06-19 22:11:00,
2013-06-19 18:22:00,83.0,76.0,-100.00,WSW,253,4.0,-999.0,80,0.00,,,-99.99,70.699997,,2013-06-19 22:22:00,
2013-06-19 18:34:00,81.0,75.0,-100.00,SSW,213,2.0,-999.0,82,0.00,,,-99.99,73.800003,,2013-06-19 22:34:00,
2013-06-19 18:43:00,81.0,75.0,-100.00,SSW,213,2.0,-999.0,82,0.00,,,-99.99,73.800003,,2013-06-19 22:43:00,
2013-06-19 18:53:00,81.0,75.0,-100.00,WSW,247,2.0,-999.0,79,0.00,,,-99.99,150.800003,,2013-06-19 22:53:00,
2013-06-19 19:02:00,81.0,75.0,-100.00,WSW,247,2.0,-999.0,79,0.00,,,-99.99,150.800003,,2013-06-19 23:02:00,
2013-06-19 19:12:00,84.0,75.0,-100.00,West,275,2.0,-999.0,75,0.00,,,-99.99,324.200012,,2013-06-19 23:12:00,
2013-06-19 19:23:00,87.0,76.0,-100.00,NW,311,1.0,-999.0,71,0.00,,,-99.99,293.899994,,2013-06-19 23:23:00,
2013-06-19 19:33:00,88.0,76.0,-100.00,NNW,331,2.0,-999.0,69,0.00,,,-99.99,251.800003,,2013-06-19 23:33:00,
2013-06-19 19:43:00,88.0,76.0,-100.00,NNW,331,2.0,-999.0,69,0.00,,,-99.99,251.800003,,2013-06-19 23:43:00,
2013-06-19 19:52:00,87.0,76.0,-100.00,NNW,348,2.0,-999.0,68,0.00,,,-99.99,183.000000,,2013-06-19 23:52:00,
2013-06-19 20:01:00,87.0,76.0,-100.00,NNW,343,1.0,-999.0,70,0.00,,,-99.99,131.000000,,2013-06-20 00:01:00,
2013-06-19 20:12:00,87.0,76.0,-100.00,NNW,343,1.0,-999.0,70,0.00,,,-99.99,131.000000,,2013-06-20 00:12:00,
2013-06-19 20:22:00,87.0,76.0,-100.00,West,262,1.0,-999.0,71,0.00,,,-99.99,81.500000,,2013-06-20 00:22:00,
2013-06-19 20:33:00,84.0,77.0,-100.00,SE,146,1.0,-999.0,77,0.00,,,-99.99,34.200001,,2013-06-20 00:33:00,
2013-06-19 20:44:00,83.0,76.0,-100.00,South,169,1.0,-999.0,80,0.00,,,-99.99,15.300000,,2013-06-20 00:44:00,
2013-06-19 20:52:00,83.0,76.0,-100.00,South,169,1.0,-999.0,80,0.00,,,-99.99,15.300000,,2013-06-20 00:52:00,
2013-06-19 21:02:00,81.0,77.0,-100.00,ENE,69,0.0,-999.0,85,0.00,,,-99.99,3.700000,,2013-06-20 01:02:00,
2013-06-19 21:11:00,81.0,77.0,-100.00,ENE,69,0.0,-999.0,85,0.00,,,-99.99,3.700000,,2013-06-20 01:11:00,
2013-06-19 21:22:00,80.0,76.0,-100.00,South,170,1.0,-999.0,86,0.00,,,-99.99,0.400000,,2013-06-20 01:22:00,
2013-06-19 21:33:00,80.0,76.0,-100.00,South,170,1.0,-999.0,86,0.00,,,-99.99,0.400000,,2013-06-20 01:33:00,
2013-06-19 21:44:00,79.0,76.0,-100.00,SSE,148,1.0,-999.0,91,0.00,,,-99.99,0.200000,,2013-06-20 01:44:00,
2013-06-19 21:53:00,79.0,76.0,-100.00,SSE,148,1.0,-999.0,91,0.00,,,-99.99,0.200000,,2013-06-20 01:53:00,
2013-06-19 22:02:00,79.0,76.0,-100.00,SSE,148,1.0,-999.0,91,0.00,,,-99.99,0.200000,,2013-06-20 02:02:00,
2013-06-19 22:11:00,79.0,76.0,-100.00,SE,143,1.0,-999.0,91,0.00,,,-99.99,0.200000,,2013-06-20 02:11:00,
2013-06-19 22:24:00,79.0,76.0,-100.00,SE,129,1.0,-999.0,92,0.00,,,-99.99,0.200000,,2013-06-20 02:24:00,
2013-06-19 22:34:00,79.0,76.0,-100.00,SE,129,1.0,-999.0,92,0.00,,,-99.99,0.200000,,2013-06-20 02:34:00,
2013-06-19 22:43:00,78.0,76.0,-100.00,SSE,151,0.0,-999.0,92,0.00,,,-99.99,0.200000,,2013-06-20 02:43:00,
2013-06-19 22:52:00,78.0,76.0,-100.00,SSE,163,1.0,-999.0,92,0.00,,,-99.99,0.200000,,2013-06-20 02:52:00,
2013-06-19 23:02:00,78.0,76.0,-100.00,SSE,163,1.0,-999.0,92,0.00,,,-99.99,0.200000,,2013-06-20 03:02:00,
2013-06-19 23:11:00,78.0,76.0,-100.00,SSE,163,1.0,-999.0,92,0.00,,,-99.99,0.200000,,2013-06-20 03:11:00,
2013-06-19 23:22:00,78.0,74.0,-100.00,SSE,155,1.0,-999.0,89,0.00,,,-99.99,0.200000,,2013-06-20 03:22:00,
2013-06-19 23:33:00,78.0,74.0,-100.00,SSE,155,1.0,-999.0,89,0.00,,,-99.99,0.200000,,2013-06-20 03:33:00,
2013-06-19 23:43:00,77.0,74.0,-100.00,SE,136,1.0,-999.0,89,0.00,,,-99.99,0.200000,,2013-06-20 03:43:00,
2013-06-19 23:54:00,77.0,74.0,-100.00,North,6,1.0,-999.0,90,0.00,,,-99.99,0.200000,,2013-06-20 03:54:00,